Regional Weather Roundup
Issued by NWS

Home | Current Version | Previous Version | Text Only | Print | Product List | Glossary On
Versions: 1 2 3 4 5 6 7 8 9 10 11 12 13 14 15 16 17 18 19 20 21 22 23 24 25 26 27 28 29 30 31 32 33 34 35 36 37 38 39 40 41 42 43 44 45 46 47 48 49 50
000
ASUS43 KBIS 292210
RWRND

NORTH DAKOTA REGIONAL WEATHER ROUNDUP
NATIONAL WEATHER SERVICE BISMARCK ND
500 PM CDT FRI MAY 29 2015

NOTE: "FAIR" INDICATES FEW OR NO CLOUDS BELOW 12,000 FEET WITH NO
SIGNIFICANT WEATHER AND/OR OBSTRUCTIONS TO VISIBILITY.


NDZ001>003-009>011-017-292300-
NORTHWEST NORTH DAKOTA

CITY           SKY/WX    TMP DP  RH WIND       PRES   REMARKS
WILLISTON      SUNNY     59  31  34 VRB5      30.29S
MINOT          MOSUNNY   56  33  42 N8        30.26F
MINOT AFB      SUNNY     56  34  43 N13G20    30.26S
$$

NDZ018>021-031>035-040>046-292300-
SOUTHWEST NORTH DAKOTA

CITY           SKY/WX    TMP DP  RH WIND       PRES   REMARKS
BISMARCK       MOSUNNY   58  36  43 N13       30.25F
DICKINSON        N/A    N/A N/A N/A MISG      30.26S
GARRISON         N/A     55  34  45 NE7       30.27S
HETTINGER ARPT MOSUNNY   53  36  52 NW12      30.28S
$$

NDZ004>008-012>016-024-026-027-054-292300-
NORTHEAST NORTH DAKOTA

CITY           SKY/WX    TMP DP  RH WIND       PRES   REMARKS
GRAND FORKS    MOSUNNY   56  38  50 N20G32    30.18S
DEVILS LAKE    SUNNY     55  32  41 N16G23    30.22S
$$

NDZ022-023-025-028>030-036>039-047>053-292300-
SOUTHEAST NORTH DAKOTA

CITY           SKY/WX    TMP DP  RH WIND       PRES   REMARKS
FARGO          PTSUNNY   56  42  59 N24G30    30.14S
JAMESTOWN      MOSUNNY   57  37  47 N25       30.18S
$$



USA.gov is the U.S. government's official web portal to all federal, state and local government web resources and services.